星链-3791 (STARLINK-3791 )

导读 | 星芒AI

STARLINK-3791 是 SpaceX Starlink 项目中的一颗低轨通信卫星,属于第 11 批组网卫星(Batch 11B),于 2022 年 9 月 30 日由猎鹰 9 号火箭成功送入近地轨道。该卫星运行在约 550 公里的高度,旨在为全球用户提供高速互联网服务。Starlink 卫星采用先进推进系统和激光通信技术,具备自动避障功能,以减少与空间碎片和他物的碰撞风险。STARLINK-3791 的部署有助于扩大 Starlink 网络的覆盖范围和稳定性。

基本信息
目录编号:
52269
目录名称:
STARLINK-3791
国际标识:
2022-041J
轨道中心:
EARTH
卫星名称:
星链-3791
卫星全名:
星链-3791 (STARLINK-3791 )
卫星状态:
在轨 (已飞行1340 天)
发射日期:
2022-04-21 UTC
国别 :
美国 (US)
星等 :
--
轨道信息
数据来源 国际轨道数据 AOE轨道数据
星历时间 2025-12-20T22:28:09+0800
10小时前
查看轨道信息
2025-12-17T12:00:00+0800
3天前
查看轨道信息
半长轴 6917.882km 6917.907km
偏心率 0.000112 0.0001626
轨道倾角 53.219° 53.213°
近地点辐角 81.701° 50.330°
升交点赤经 104.156° 119.575°
平近点角 278.411° 354.616°
近地点 538.97km 538.647km
远地点 540.52km 540.897km
周期 95.438分钟 95.438分钟
每日圈数 15.088396 15.088316
详细信息
固有亮度:
5
最大亮度:
2.5
卫星平台:
Starlink v1.5
覆盖范围:
全球
运营商:
太空探索技术公司
运营商所在国:
美国
制造商(研发单位):
太空探索技术公司
制造商所在国:
美国
使用方式:
暂无
卫星简介
星链(Starlink)计划是由太空探索技术公司(SpaceX)提出的一个巨型低轨卫星互联网星座项目,计划在2019年至2024年间在太空搭建由约1.2万颗卫星组成的“星链”网络,其中1584颗将部署在地球上空550千米处的近地轨道,并从2020年开始工作。该卫星仍在工作。
2D轨道图
3D轨道图
轨道高度分析图
轨道倾角分析图
轨道综合分析图
查看轨道综合分析图